Location: Ermatingen
(47.6706°N, 9.0857°E)
Time: 05:36:21
(UTC+00:00)

Cosmos 372 Rocket - Pass Details

Date: 18 September 2020
Orbit: 739 x 767 km, 74.1° (Epoch: 22 October)

Event Time Altitude Azimuth Distance (km) Brightness Sun altitude
Rises 18:43:17 0° 189° (S) 3,222 7.1 -13.1°
Reaches altitude 10° 18:45:40 10° 185° (S) 2,299 6.3 -13.5°
Maximum altitude 18:50:47 59° 107° (ESE) 886 4.0 -14.3°
Drops below altitude 10° 18:55:56 10° 29° (NNE) 2,306 6.4 -15.1°
Sets 18:58:19 0° 26° (NNE) 3,232 7.2 -15.5°
